COSMOS 249 DEB *, 3908

Orbit data source: Space-Track

COSMOS 249 DEB *, 3908 is space debris in LEO originally from a launch on Sun, 20 Oct 1968 UTC launched from the Tyuratam Missile And Space Complex (TTMTR). Debris objects in space refer to the collection of defunct objects orbiting the Earth. Examples of debris include non-operational satellites, rocket bodies, and fragments generated from explosions, collisions, or faulty payload assembly.

Loading next visibility...
Identifier
3908, 1968-091BL
Orbit
LEO
Country
Flag of CISCIS
Related business
Manufacturer
Unknown
Mission
Spacecraft
Bus & Motor
Unknown
Mass
Unknown
Launch date (UTC)
1968-10-20 (57 years ago)
Launch vehicle
Unknown
Launch site
Tyuratam Missile And Space Complex (TTMTR)
Object type
Payload
Rocket body
Debris
Shape & HBR
Unknown shape, 0.1 m
Radar Cross Section
Small (<0.1 m²)

Expand to show TLE details & history
Last TLE update: 19 hours ago

TLE from 19 hours ago
0 COSMOS 249 DEB *
1 03908U 68091BL  26035.17899510  .00002004  00000-0  14860-2 0  9997
2 03908  63.3439 309.4512 0589629  31.5059 114.5250 13.36309670763716
Epoch: 2026-02-04T04:17Z
TLE epoch observation values (Epoch: 2026-02-04T04:17:45.176Z)
Latitude
24.86412°
Longitude
-82.72061°
Altitude
1,329.328 km
Speed
7.097 km/s
True Right ascension
07h 44m 16s
True Declination
24° 44' 34"
Sunlit
Object was in full shadow at epoch
Visualization orbit readout
Latitude
Unknown
Longitude
Unknown
Altitude
Unknown
Speed
Unknown
Apparent Right ascension
Unknown
Apparent Declination
Unknown
Sunlit
N/A
Visualization observer readout
Local Sidereal Time
01:19:38
Azimuth
Unknown
Elevation
Unknown
Doppler factor
Unknown
Orbital elements
Apogee altitude
1,564.117 km
Perigee altitude
679.67 km
Semi-major axis
7,500.03 km
Eccentricity
0.05896
Inclination
63.3439°
RAAN
309.4512°
Arg. of periapsis
31.5059°
True anomaly
120.47869°
Mean anomaly
114.525°
Eccentric anomaly
117.52104°
Mean motion
3.34156 °/min
Orbital period
107.73 mins
BSTAR
0.001486
Loading maneuver chart data...
Computing Atmospheric mass density...

Documentation

Showing up to 5 results
|